| time (UTC) | temp F | wind direction | speed MPH | gust MPH | rain 1hr in | rain 24hr in | rain mn in | humidity % | barometer mb |
| 20260505083032 | 64 | 211 | 3.0 | 8.0 | 0.00 | 0.00 | 0.00 | 67 | 1007.7 |
| 20260505081532 | 63 | 219 | 2.0 | 5.0 | 0.00 | 0.00 | 0.00 | 68 | 1007.5 |
| 20260505080029 | 62 | 225 | 1.0 | 5.0 | 0.00 | 0.00 | 0.00 | 69 | 1007.0 |
| 20260505074534 | 62 | 226 | 2.0 | 8.0 | 0.00 | 0.00 | 0.00 | 68 | 1007.2 |
| 20260505073030 | 63 | 248 | 3.0 | 9.0 | 0.00 | 0.00 | 0.00 | 67 | 1007.2 |
| 20260505071532 | 63 | 225 | 4.0 | 9.0 | 0.00 | 0.00 | 0.00 | 68 | 1006.9 |
| 20260505070030 | 63 | 203 | 4.0 | 10.0 | 0.00 | 0.00 | 0.00 | 67 | 1006.8 |
| 20260505064534 | 63 | 219 | 4.0 | 9.0 | 0.00 | 0.00 | 0.00 | 67 | 1006.9 |
| 20260505063029 | 62 | 209 | 4.0 | 8.0 | 0.00 | 0.00 | 0.00 | 67 | 1006.9 |
| 20260505061528 | 63 | 233 | 5.0 | 11.0 | 0.00 | 0.00 | 0.00 | 66 | 1006.9 |
| 20260505060030 | 63 | 248 | 6.0 | 13.0 | 0.00 | 0.00 | 0.00 | 66 | 1006.9 |
| 20260505054544 | 63 | 210 | 5.0 | 14.0 | 0.00 | 0.00 | 0.00 | 67 | 1006.6 |
| 20260505053029 | 63 | 178 | 5.0 | 10.0 | 0.00 | 0.00 | 0.00 | 66 | 1006.1 |
| 20260505051532 | 64 | 235 | 5.0 | 11.0 | 0.00 | 0.00 | 0.00 | 66 | 1006.2 |
| 20260505041532 | 64 | 211 | 3.0 | 8.0 | 0.00 | 0.00 | 0.00 | 67 | 1006.9 |
| 20260505040034 | 64 | 210 | 3.0 | 10.0 | 0.00 | 0.00 | 0.00 | 66 | 1007.1 |
| 20260505034538 | 65 | 213 | 4.0 | 10.0 | 0.00 | 0.00 | 0.00 | 66 | 1007.1 |
| 20260505033032 | 65 | 222 | 3.0 | 10.0 | 0.00 | 0.00 | 0.00 | 65 | 1007.1 |
| 20260505031530 | 65 | 208 | 4.0 | 9.0 | 0.00 | 0.00 | 0.00 | 66 | 1007.0 |
| 20260505030044 | 65 | 204 | 4.0 | 9.0 | 0.00 | 0.00 | 0.00 | 65 | 1006.9 |
| 20260505024531 | 66 | 206 | 4.0 | 9.0 | 0.00 | 0.00 | 0.00 | 64 | 1006.8 |
| 20260505023039 | 66 | 210 | 4.0 | 8.0 | 0.00 | 0.00 | 0.00 | 64 | 1006.5 |
| 20260505021533 | 66 | 209 | 3.0 | 7.0 | 0.00 | 0.00 | 0.00 | 63 | 1006.4 |
| 20260505020030 | 66 | 216 | 3.0 | 8.0 | 0.00 | 0.00 | 0.00 | 63 | 1006.0 |
| 20260505014536 | 67 | 226 | 3.0 | 7.0 | 0.00 | 0.00 | 0.00 | 62 | 1005.8 |
| 20260505013038 | 68 | 213 | 4.0 | 10.0 | 0.00 | 0.00 | 0.00 | 60 | 1005.5 |
| 20260505011532 | 68 | 213 | 4.0 | 9.0 | 0.00 | 0.00 | 0.00 | 59 | 1005.3 |
| 20260505010034 | 69 | 223 | 4.0 | 11.0 | 0.00 | 0.00 | 0.00 | 58 | 1005.3 |
| 20260505004553 | 70 | 212 | 4.0 | 11.0 | 0.00 | 0.00 | 0.00 | 57 | 1005.3 |
| 20260505003032 | 71 | 218 | 6.0 | 13.0 | 0.00 | 0.00 | 0.00 | 55 | 1005.5 |
| 20260505001535 | 71 | 215 | 6.0 | 15.0 | 0.00 | 0.00 | 0.00 | 57 | 1005.4 |
| 20260505000036 | 72 | 227 | 6.0 | 13.0 | 0.00 | 0.00 | 0.00 | 56 | 1005.7 |
| 20260504234531 | 72 | 221 | 8.0 | 15.0 | 0.00 | 0.00 | 0.00 | 56 | 1005.9 |
| 20260504233032 | 73 | 207 | 6.0 | 15.0 | 0.00 | 0.00 | 0.00 | 55 | 1006.0 |
| 20260504231530 | 73 | 232 | 4.0 | 14.0 | 0.00 | 0.00 | 0.00 | 53 | 1006.1 |
| 20260504230030 | 74 | 195 | 6.0 | 20.0 | 0.00 | 0.00 | 0.00 | 52 | 1006.4 |
| 20260504224534 | 74 | 232 | 8.0 | 23.0 | 0.00 | 0.00 | 0.00 | 50 | 1006.5 |
| 20260504223030 | 75 | 232 | 9.0 | 20.0 | 0.00 | 0.00 | 0.00 | 49 | 1006.6 |
| 20260504221537 | 75 | 215 | 7.0 | 27.0 | 0.00 | 0.00 | 0.00 | 51 | 1006.6 |
| 20260504220030 | 75 | 224 | 7.0 | 23.0 | 0.00 | 0.00 | 0.00 | 47 | 1006.6 |
| 20260504214531 | 76 | 215 | 8.0 | 15.0 | 0.00 | 0.00 | 0.00 | 52 | 1006.4 |
| 20260504213038 | 74 | 207 | 2.0 | 8.0 | 0.00 | 0.00 | 0.00 | 57 | 1006.7 |
| 20260504211535 | 74 | 0 | 0.0 | 8.0 | 0.00 | 0.00 | 0.00 | 56 | 1007.0 |
| 20260504210030 | 74 | 234 | 3.0 | 14.0 | 0.00 | 0.00 | 0.00 | 55 | 1007.3 |
| 20260504204535 | 75 | 234 | 5.0 | 11.0 | 0.00 | 0.00 | 0.00 | 52 | 1007.5 |
| 20260504203033 | 76 | 214 | 3.0 | 9.0 | 0.00 | 0.00 | 0.00 | 52 | 1007.6 |
| 20260504201530 | 75 | 222 | 4.0 | 18.0 | 0.00 | 0.00 | 0.00 | 54 | 1007.8 |
| 20260504200030 | 74 | 210 | 5.0 | 12.0 | 0.00 | 0.00 | 0.00 | 54 | 1008.0 |
| 20260504194530 | 73 | 221 | 3.0 | 15.0 | 0.00 | 0.00 | 0.00 | 56 | 1008.3 |
| 20260504193030 | 74 | 217 | 8.0 | 18.0 | 0.00 | 0.00 | 0.00 | 58 | 1008.4 |
| 20260504191557 | 73 | 259 | 5.0 | 15.0 | 0.00 | 0.00 | 0.00 | 58 | 1008.7 |
| 20260504190037 | 72 | 246 | 7.0 | 10.0 | 0.00 | 0.00 | 0.00 | 61 | 1008.8 |
| 20260504184541 | 71 | 229 | 5.0 | 15.0 | 0.00 | 0.00 | 0.00 | 62 | 1009.1 |
| 20260504183032 | 70 | 196 | 5.0 | 13.0 | 0.00 | 0.00 | 0.00 | 63 | 1009.1 |
| 20260504181533 | 69 | 232 | 5.0 | 13.0 | 0.00 | 0.00 | 0.00 | 63 | 1009.0 |
| 20260504180035 | 70 | 211 | 6.0 | 18.0 | 0.00 | 0.00 | 0.00 | 63 | 1009.0 |
| 20260504174530 | 69 | 207 | 9.0 | 17.0 | 0.00 | 0.00 | 0.00 | 62 | 1008.9 |
| 20260504173030 | 69 | 204 | 5.0 | 19.0 | 0.00 | 0.00 | 0.00 | 65 | 1008.7 |
| 20260504171530 | 69 | 196 | 6.0 | 16.0 | 0.00 | 0.00 | 0.00 | 65 | 1008.7 |